Regional Weather Roundup
Issued by NWS

Home | Current Version | Previous Version | Text Only | Print | Product List | Glossary Off
Versions: 1 2 3 4 5 6 7 8 9 10 11 12 13 14 15 16 17 18 19 20 21 22 23 24 25 26 27 28 29 30 31 32 33 34 35 36 37 38 39 40 41 42 43 44 45 46 47 48 49 50

000
ASUS43 KTOP 160208
RWRKS

WEATHER ROUNDUP FOR KANSAS
NATIONAL WEATHER SERVICE GOODLAND KS
900 PM CDT TUE APR 15 2014

NOTE:  "FAIR" INDICATES FEW OR NO CLOUDS BELOW 12,000 FEET WITH NO
SIGNIFICANT WEATHER AND/OR OBSTRUCTIONS TO VISIBILITY.

KSZ001>006-013>018-027>032-041>047-160300-
NORTHWEST KANSAS

CITY           SKY/WX    TMP DP  RH WIND       PRES   REMARKS
GOODLAND       PTCLDY    48  25  40 S12       29.72F
HAYS           MOCLDY    55  23  28 S12       29.80F
HILL CITY      MOCLDY    56  22  26 S8        29.76F
RUSSELL        MOCLDY    55  22  27 MISG      29.80F
$$

KSZ061>065-074>080-084>089-160300-
SOUTHWEST KANSAS

CITY           SKY/WX    TMP DP  RH WIND       PRES   REMARKS
DODGE CITY     MOCLDY    57  18  21 S20       29.82S
ELKHART          N/A     51  23  33 S8          N/A
GARDEN CITY    MOCLDY    56  27  32 SE12      29.78F
GREAT BEND     MOCLDY    57  19  23 S18G24    29.83S
LIBERAL        MOCLDY    57  19  23 S12       29.82S
PRATT          PTCLDY    54  21  28 S13G18    29.89S
$$

KSZ066>073-081>083-090>101-160300-
SOUTHEAST KANSAS

CITY           SKY/WX    TMP DP  RH WIND       PRES   REMARKS
CHANUTE        MOCLDY    50  29  44 SE10      30.05R
COFFEYVILLE    CLOUDY    52  28  39 SE12      30.06S
HUTCHINSON     CLOUDY    55  16  21 S15       29.91R
MEDICINE LODGE   N/A     58  20  22 S13G21    29.90S
NEWTON         CLOUDY    54  16  22 S13       29.97S
PARSONS        CLOUDY    52  27  38 SE7       30.06S
WICHITA INTL   CLOUDY    54  17  23 S16       29.94F
WICHITA JABRA  CLOUDY    54  18  24 S13       29.95S
WICHITA MCCONL MOCLDY    54  14  20 SE13      29.96S
WINFIELD       PTCLDY    51  21  30 S12       30.00S
$$

KSZ007>012-019>026-033>040-048>060-102>105-160300-
NORTHEAST KANSAS

CITY           SKY/WX    TMP DP  RH WIND       PRES   REMARKS
CONCORDIA      CLOUDY    56  20  24 S20       29.84F
EMPORIA        MOCLDY    50  24  36 SE12      29.98S HAZE
LAWRENCE       PTCLDY    49  32  52 SE10      30.01F
MANHATTAN      PTCLDY    55  22  27 S13       29.91F
OLATHE IND     MOCLDY    48  28  46 SE13      30.04S
OLATHE EXE     MOCLDY    47  28  47 SE10      30.03S
SALINA         PTCLDY    55  19  24 S14       29.89F
TOPEKA BILLARD MOCLDY    52  29  41 SE14      29.99S
TOPEKA FORBES  MOCLDY    50  29  44 SE14      29.98S
$$



USA.gov is the U.S. government's official web portal to all federal, state and local government web resources and services.